Weather History for Rome Ciampino, Italy

Change the Weather History Date:

Friday, March 30, 2012

  Actual Average Record
Temperature  
Mean Temperature 56 °F -  
Max Temperature 68 °F 65 °F 68 °F (2009)
Min Temperature 44 °F 46 °F 37 °F (1997)
Degree Days  
Heating Degree Days 9    
Growing Degree Days 6 (Base 50)    
Moisture  
Dew Point 47 °F    
Average Humidity 75    
Maximum Humidity 100    
Minimum Humidity 37    
Precipitation  
Precipitation 0.00 in 0.09 in - ()
Sea Level Pressure  
Sea Level Pressure 29.88 in    
Wind  
Wind Speed 5 mph ()    
Max Wind Speed 12 mph    
Max Gust Speed -    
Visibility 4.5 miles    
Events      
Averages and records for this station are not official NWS values.
T = Trace of Precipitation, MM = Missing Value Source: Averaged Metar Reports

Daily Weather History Graph

Daily Weather History Graph

Search for Another Location

Airport:

Trip Planner

Search our weather history database for the weather conditions in past years. The results will help you decide how hot, cold, wet, or windy it might be!

Date:

Astronomy

Mar. 30, 2012 Rise Set
Actual Time 6:55 AM CEST 7:33 PM CEST
Civil Twilight 6:27 AM CEST 8:01 PM CEST
Nautical Twilight 5:54 AM CEST 8:34 PM CEST
Astronomical Twilight 5:20 AM CEST 9:08 PM CEST
Moon 11:40 AM CEST (3/30) 2:01 AM CEST (3/30)
Length of Visible Light 13h 33m
Length of Day
12h 37m
Waxing Crescent, 46% of the Moon is Illuminated
Mar 30
Waxing Crescent
Mar 30
First Quarter
Apr 6
Full
Apr 13
Last Quarter
Apr 21
New

Hourly Weather History & Observations

Time (CEST) Temp. Windchill Dew Point Humidity Pressure Visibility Wind Dir Wind Speed Gust Speed Precip Events Conditions
12:15 AM 51.8 °F - 48.2 °F 88% 29.98 in - SSW 5.8 mph - N/A   Clear
12:45 AM 51.8 °F - 46.4 °F 82% 29.98 in 5.0 mi South 4.6 mph - N/A   Scattered Clouds
1:15 AM 50.0 °F - 48.2 °F 94% 29.98 in 5.0 mi SSE 2.3 mph - N/A   Partly Cloudy
1:45 AM 50.0 °F - 50.0 °F 100% 29.98 in 5.0 mi South 4.6 mph - N/A   Partly Cloudy
2:15 AM 51.8 °F - 51.8 °F 100% 29.98 in 5.0 mi SSE 3.5 mph - N/A   Scattered Clouds
2:45 AM 51.8 °F - 50.0 °F 94% 29.95 in 3.1 mi SE 4.6 mph - N/A   Scattered Clouds
3:15 AM 50.0 °F - 50.0 °F 100% 29.95 in 3.1 mi SE 3.5 mph - N/A   Scattered Clouds
3:45 AM 46.4 °F 44.3 °F 44.6 °F 93% 29.95 in 3.1 mi East 4.6 mph - N/A   Partly Cloudy
4:15 AM 46.4 °F 43.5 °F 42.8 °F 87% 29.92 in 3.7 mi East 5.8 mph - N/A   Partly Cloudy
4:45 AM 46.4 °F 44.3 °F 42.8 °F 87% 29.92 in 4.3 mi East 4.6 mph - N/A   Partly Cloudy
5:15 AM 46.4 °F 45.2 °F 44.6 °F 93% 29.92 in 4.3 mi East 3.5 mph - N/A   Partly Cloudy
5:45 AM 48.2 °F - 44.6 °F 87% 29.92 in 4.3 mi East 2.3 mph - N/A   Partly Cloudy
6:15 AM 46.4 °F - 39.2 °F 76% 29.89 in 5.0 mi East 2.3 mph - N/A   Partly Cloudy
6:45 AM 44.6 °F - 37.4 °F 76% 29.89 in 5.6 mi ESE 1.2 mph - N/A   Unknown
7:15 AM 46.4 °F - 35.6 °F 66% 29.89 in - NE 2.3 mph - N/A   Clear
7:45 AM 46.4 °F - 39.2 °F 76% 29.86 in - NNE 2.3 mph - N/A   Clear
8:15 AM 48.2 °F - 44.6 °F 87% 29.89 in - ENE 2.3 mph - N/A   Clear
8:45 AM 50.0 °F - 46.4 °F 87% 29.89 in - NNW 2.3 mph - N/A   Clear
9:15 AM 51.8 °F - 48.2 °F 88% 29.89 in - Calm Calm - N/A   Clear
9:45 AM 55.4 °F - 48.2 °F 77% 29.89 in - SSW 4.6 mph - N/A   Clear
10:15 AM 57.2 °F - 51.8 °F 82% 29.89 in - SSW 6.9 mph - N/A   Clear
10:45 AM 60.8 °F - 53.6 °F 77% 29.89 in - SW 4.6 mph - N/A   Clear
11:15 AM 62.6 °F - 53.6 °F 72% 29.89 in - SW 6.9 mph - N/A   Clear
11:45 AM 64.4 °F - 50.0 °F 59% 29.89 in - SSW 6.9 mph - N/A   Clear
12:15 PM 64.4 °F - 50.0 °F 59% 29.86 in - South 8.1 mph - N/A   Clear
12:45 PM 66.2 °F - 50.0 °F 56% 29.86 in - SW 9.2 mph - N/A   Clear
1:15 PM 66.2 °F - 46.4 °F 49% 29.86 in - SSW 8.1 mph - N/A   Clear
1:45 PM 66.2 °F - 46.4 °F 49% 29.86 in - SSW 11.5 mph - N/A   Clear
2:15 PM 66.2 °F - 42.8 °F 43% 29.86 in - SW 11.5 mph - N/A   Clear
2:45 PM 66.2 °F - 42.8 °F 43% 29.83 in - SSW 10.4 mph - N/A   Clear
3:15 PM 68.0 °F - 44.6 °F 43% 29.83 in - SSW 9.2 mph - N/A   Clear
3:45 PM 68.0 °F - 41.0 °F 37% 29.83 in - SW 8.1 mph - N/A   Clear
4:15 PM 66.2 °F - 46.4 °F 49% 29.83 in - South 9.2 mph - N/A   Clear
4:45 PM 66.2 °F - 46.4 °F 49% 29.83 in - South 6.9 mph - N/A   Clear
5:15 PM 64.4 °F - 46.4 °F 52% 29.83 in - SSW 10.4 mph - N/A   Clear
5:45 PM 64.4 °F - 46.4 °F 52% 29.83 in - South 8.1 mph - N/A   Clear
6:15 PM 62.6 °F - 48.2 °F 59% 29.83 in - WSW 9.2 mph - N/A   Clear
6:45 PM 62.6 °F - 48.2 °F 59% 29.83 in - SW 6.9 mph - N/A   Clear
7:15 PM 60.8 °F - 50.0 °F 68% 29.80 in - SW 4.6 mph - N/A   Clear
7:45 PM 60.8 °F - 50.0 °F 68% 29.83 in - SSW 4.6 mph - N/A   Clear
8:15 PM 57.2 °F - 50.0 °F 77% 29.83 in - SSW 6.9 mph - N/A   Clear
8:45 PM 57.2 °F - 53.6 °F 88% 29.83 in - South 4.6 mph - N/A   Clear
9:15 PM 55.4 °F - 53.6 °F 94% 29.83 in - South 4.6 mph - N/A   Clear
9:45 PM 55.4 °F - 51.8 °F 88% 29.83 in - South 4.6 mph - N/A   Clear
10:15 PM 55.4 °F - 53.6 °F 94% 29.83 in 6.2 mi South 4.6 mph - N/A   Partly Cloudy
10:45 PM 55.4 °F - 53.6 °F 94% 29.86 in - South 3.5 mph - N/A   Clear
11:15 PM 55.4 °F - 51.8 °F 88% 29.83 in - South 2.3 mph - N/A   Clear
11:45 PM 53.6 °F - 51.8 °F 94% 29.83 in - SE 3.5 mph - N/A   Clear